Wind_Speed
29 28 27 26 26 25 24 23 21 20 19 18 18 17 16 16 16 16 16 16 16 16 16 16 17 17 18 18 18 18 18 18 18 17 17 16 16 16 17 18 18 18 19 19
31 30 29 28 27 26 26 25 24 23 23 22 20 19 18 18 18 19 18 19 19 19 19 19 19 20 20 21 21 21 21 21 20 20 19 18 18 19 19 19 20 20 20 20
32 31 31 31 30 28 28 27 26 25 25 25 23 22 20 20 20 21 21 21 21 21 21 21 21 22 22 23 24 23 23 23 23 23 22 21 21 21 21 21 21 21 21 21
33 33 33 31 30 30 29 29 28 28 27 26 26 24 23 22 22 23 23 23 23 23 24 24 24 24 25 25 25 24 25 25 25 24 24 23 23 23 22 22 22 22 22 23
34 34 33 33 31 30 30 31 30 29 28 28 28 27 26 25 25 25 25 25 25 25 26 26 26 26 27 27 27 26 26 25 25 24 25 25 24 24 25 25 24 24 24 24
36 34 33 33 32 31 30 31 31 30 30 30 29 29 28 27 27 27 27 27 27 27 27 27 27 28 28 28 28 27 27 27 26 26 26 27 26 26 27 27 27 27 26 26
37 35 34 34 33 31 32 32 31 30 30 30 31 31 30 29 29 29 29 29 29 29 29 29 29 29 30 29 29 29 29 29 29 29 29 28 28 28 28 28 28 28 28 28
37 36 35 35 34 34 33 33 32 31 30 30 30 31 31 31 31 31 31 31 31 31 31 31 31 31 31 31 31 31 31 30 30 31 31 29 29 29 30 30 30 30 30 30
38 38 37 35 34 34 34 33 32 32 31 31 31 31 32 32 32 33 33 33 32 32 33 33 33 32 32 33 33 33 32 32 31 32 31 31 31 31 31 31 31 31 31 31
37 37 37 36 35 35 34 33 32 32 32 32 32 32 33 33 33 33 33 33 34 34 34 34 34 34 33 34 34 34 34 34 33 33 33 33 33 33 32 32 32 31 31 32
37 36 35 35 34 34 34 34 34 34 33 33 33 34 34 34 34 34 34 34 34 34 34 34 35 35 36 36 36 35 35 35 34 34 34 34 34 33 34 34 33 33 33 34
36 35 34 34 35 35 35 35 34 35 35 35 35 35 35 35 35 35 36 36 35 35 36 36 37 37 36 36 36 36 36 35 36 36 35 35 35 35 35 35 35 35 35 35
35 34 34 34 34 35 35 35 35 35 35 35 35 35 35 35 36 36 37 37 38 38 38 38 39 38 38 38 37 37 37 37 37 37 36 36 37 37 37 37 37 37 37 37
34 34 34 34 34 34 35 34 34 35 35 35 35 36 36 36 36 37 37 38 39 40 40 40 40 40 40 39 39 39 39 39 39 39 39 39 39 40 40 39 39 39 39 39
33 34 33 33 33 34 34 34 34 34 34 35 36 36 37 37 38 37 37 38 39 40 40 41 41 41 40 40 40 40 41 41 40 40 40 40 41 41 41 41 41 40 39 39
33 32 32 32 32 33 33 33 34 34 34 34 34 34 35 37 37 37 38 38 39 39 40 40 40 41 41 40 40 40 40 41 41 41 42 42 42 42 41 41 41 40 40 39
31 31 31 32 32 32 32 32 32 32 33 33 33 33 34 34 35 36 37 38 39 39 40 40 40 40 40 41 41 41 41 41 42 42 42 42 42 41 41 41 41 40 40 39
29 30 30 30 30 30 31 32 32 32 32 32 32 33 34 35 35 36 37 38 39 39 40 40 41 41 41 42 42 42 42 43 43 43 42 42 41 41 41 40 40 40 40 40
28 29 29 29 30 30 31 31 31 31 32 32 33 33 34 35 35 36 37 37 38 39 39 40 41 41 41 41 41 41 41 42 42 42 42 42 41 41 40 39 40 40 40 40
26 26 27 27 28 29 29 29 29 30 31 32 32 33 33 33 34 34 35 36 36 37 38 39 39 40 40 40 40 40 40 41 41 40 41 41 41 40 40 40 39 40 39 39
24 25 25 26 26 27 27 28 29 29 30 31 32 33 32 32 32 33 33 34 35 36 37 37 38 38 38 38 38 39 38 38 38 38 39 39 39 40 39 39 40 39 39 38
23 23 24 24 26 26 26 27 27 28 29 28 29 30 30 30 31 32 33 34 34 35 35 36 36 36 37 37 37 38 38 38 38 38 38 38 38 38 38 38 38 38 38 38
22 22 23 24 25 25 25 25 26 26 26 26 27 28 29 29 30 31 32 33 33 34 34 35 35 36 36 36 36 37 37 37 37 37 37 37 37 37 37 36 36 36 36 36
21 22 22 22 23 23 23 23 24 24 25 26 27 28 28 28 29 30 31 31 32 32 33 33 34 34 34 35 35 36 35 35 35 35 35 35 35 35 35 34 34 34 34 34
20 20 20 20 21 22 22 23 24 24 25 26 26 26 27 27 28 28 29 30 30 31 31 32 32 32 32 32 33 33 33 33 33 33 33 33 33 33 32 32 32 32 31 31
19 19 20 21 21 22 22 23 23 24 24 25 26 26 26 27 27 28 28 29 29 29 29 29 29 29 29 30 30 31 31 31 31 30 30 30 30 30 30 30 29 28 28 28
18 18 19 19 20 20 21 21 22 23 23 24 24 24 25 25 26 26 27 26 26 26 26 26 26 27 27 27 27 27 27 28 28 27 27 27 28 28 28 27 27 27 27 28
Wind_Direction
231 233 237 241 242 242 242 243 247 252 255 260 261 260 259 259 262 265 265 266 267 270 275 278 282 284 287 291 293 296 298 300 305 304 301 301 300 297 297 296 295 296 298 299
236 236 238 240 241 242 243 245 247 251 255 258 260 258 258 260 262 264 265 266 267 270 274 277 279 281 284 287 291 294 296 298 299 303 303 301 298 296 295 294 293 293 295 296
237 239 240 240 240 243 245 246 248 250 254 256 259 259 261 262 262 264 264 265 268 271 275 276 278 280 283 285 288 291 293 295 295 298 299 300 299 297 295 293 291 291 292 292
236 239 241 242 242 243 245 247 249 251 253 256 257 257 259 261 261 262 264 267 269 270 274 278 279 281 284 285 286 288 290 292 293 293 294 296 297 296 294 293 290 289 290 291
236 240 243 243 244 244 246 248 250 253 254 255 257 256 257 259 259 261 263 266 270 272 273 276 278 280 282 284 285 286 288 289 290 291 292 292 293 294 292 291 291 290 290 291
236 239 243 246 246 246 248 250 250 252 253 255 256 257 258 258 260 261 263 265 268 271 274 276 278 279 281 282 284 284 285 286 287 288 290 290 290 291 292 291 291 291 290 290
236 239 242 246 247 247 248 250 251 252 253 255 257 257 259 259 260 262 264 266 267 269 272 274 276 278 281 281 282 283 283 284 285 285 287 287 289 290 291 291 292 291 291 291
236 239 242 245 247 248 251 251 252 252 253 255 257 257 258 259 260 262 263 265 267 268 270 273 275 277 278 278 280 281 282 281 283 284 285 286 288 289 290 291 291 292 293 292
237 239 243 246 248 250 251 253 253 253 254 255 257 258 259 259 261 262 264 265 266 268 270 272 273 275 276 277 279 281 281 281 282 282 284 286 287 288 290 291 290 291 292 292
239 241 243 246 248 250 251 252 253 254 255 257 258 259 261 260 260 262 263 264 265 267 268 269 270 271 274 276 278 280 281 281 282 283 284 284 285 287 288 289 289 290 290 291
239 242 244 246 247 249 251 252 253 255 256 257 259 261 262 260 259 260 262 263 265 266 267 267 269 271 273 274 277 278 280 281 281 283 284 284 285 285 286 287 288 289 289 289
240 242 245 248 250 248 250 252 254 255 256 258 260 260 261 262 261 260 261 262 263 264 265 266 267 269 271 274 276 277 279 280 282 283 283 283 283 284 284 285 286 287 288 289
242 244 246 248 250 251 252 254 256 257 258 259 261 262 262 263 262 260 261 261 262 264 264 264 266 268 271 273 274 275 276 278 280 281 282 283 283 282 282 283 284 285 286 287
243 244 247 249 250 251 253 254 256 258 259 260 260 261 262 261 262 263 264 263 264 265 265 265 267 269 270 270 272 273 274 276 278 279 280 281 282 283 283 283 283 284 285 285
243 244 246 248 249 251 253 255 256 257 258 260 261 263 262 263 264 265 266 266 267 267 267 268 269 270 270 271 272 273 274 276 277 278 280 281 283 283 284 284 283 283 284 284
242 244 246 248 251 253 254 256 258 259 260 261 262 264 264 263 264 264 266 267 267 267 268 269 268 268 269 271 272 273 275 276 277 278 280 281 282 283 283 283 283 282 282 283
242 244 247 249 251 253 256 258 259 260 262 263 264 264 265 265 265 267 267 267 267 268 269 270 271 271 272 273 274 275 275 276 277 278 279 280 282 283 283 282 282 281 281 282
243 245 248 250 252 253 256 259 260 261 262 263 265 265 265 265 267 268 268 269 269 270 271 271 272 273 273 274 275 276 277 278 278 278 279 280 281 281 281 281 281 281 281 281
245 247 250 251 252 254 256 259 260 260 261 264 266 266 266 267 268 270 271 272 272 272 273 274 275 275 276 277 277 277 278 278 278 278 279 279 280 280 280 279 279 280 280 281
245 248 251 253 254 257 257 258 260 262 264 266 267 268 268 269 270 270 271 272 274 275 276 277 277 277 278 278 278 278 278 278 277 278 278 279 279 279 279 279 279 280 280 280
247 249 251 253 257 259 260 261 263 265 266 268 269 270 271 272 272 273 275 276 277 278 278 278 278 279 279 279 279 279 279 279 278 278 279 279 280 280 279 278 278 278 279 280
248 250 253 256 259 261 262 264 265 268 269 270 272 273 274 275 275 276 278 279 280 280 279 279 279 280 280 280 280 280 279 279 279 279 280 280 280 280 279 278 278 278 278 279
250 254 256 258 260 262 264 266 268 268 269 271 273 275 277 278 278 279 280 281 282 282 281 280 280 281 281 281 280 281 281 281 281 281 281 281 280 279 279 279 278 278 279 280
250 252 254 257 259 261 263 265 268 269 270 272 274 277 279 280 281 282 283 284 284 284 283 282 282 282 282 281 281 281 281 281 281 282 281 280 280 279 279 279 279 279 279 280
250 253 256 259 261 262 264 267 270 272 273 275 277 280 283 284 284 285 286 286 286 286 286 284 284 284 284 284 283 282 281 281 282 282 281 281 280 279 279 280 281 281 280 281
254 256 259 261 263 265 268 270 272 274 276 279 281 284 285 286 286 287 288 288 288 288 288 287 287 286 286 286 285 284 284 283 283 283 283 283 281 280 280 280 282 281 281 282
255 258 260 263 266 269 272 275 277 279 280 282 284 285 286 287 289 290 291 291 290 290 290 290 290 290 290 290 289 288 287 285 284 284 285 284 282 281 281 281 281 282 281 281
Height
5881 5884 5887 5889 5891 5894 5896 5899 5901 5903 5904 5905 5905 5905 5906 5906 5907 5907 5907 5906 5906 5906 5906 5905 5905 5904 5902 5901 5900 5898 5897 5895 5893 5891 5889 5887 5885 5883 5881 5879 5877 5875 5873 5871
5874 5877 5880 5882 5885 5887 5890 5892 5894 5896 5898 5899 5899 5900 5900 5901 5902 5902 5902 5902 5902 5902 5901 5901 5900 5899 5898 5897 5895 5894 5892 5890 5889 5887 5885 5883 5881 5879 5877 5875 5873 5871 5869 5867
5867 5870 5872 5875 5878 5881 5883 5885 5888 5890 5892 5892 5893 5894 5895 5896 5896 5897 5897 5897 5897 5897 5896 5896 5895 5894 5893 5892 5890 5888 5887 5885 5883 5882 5880 5878 5876 5874 5872 5869 5867 5865 5863 5861
5860 5862 5864 5870 5871 5874 5876 5878 5880 5882 5884 5885 5886 5887 5888 5890 5890 5891 5891 5891 5891 5891 5890 5890 5889 5888 5887 5885 5884 5882 5881 5879 5877 5876 5874 5872 5870 5868 5866 5864 5862 5860 5858 5855
5851 5854 5857 5861 5863 5866 5868 5870 5872 5874 5876 5877 5879 5880 5881 5882 5883 5884 5884 5884 5884 5884 5884 5883 5883 5882 5880 5879 5877 5876 5874 5873 5871 5869 5867 5865 5863 5861 5859 5857 5855 5853 5851 5849
5842 5846 5849 5853 5855 5858 5861 5862 5864 5866 5868 5869 5871 5873 5873 5875 5875 5876 5877 5877 5877 5877 5877 5876 5875 5875 5873 5872 5871 5869 5867 5866 5864 5863 5861 5859 5857 5855 5852 5850 5848 5846 5844 5842
5833 5837 5841 5843 5846 5850 5853 5854 5856 5858 5859 5861 5862 5864 5865 5866 5867 5868 5868 5869 5869 5869 5869 5868 5868 5867 5866 5864 5863 5862 5860 5858 5857 5855 5853 5852 5849 5847 5845 5843 5841 5839 5837 5835
5824 5829 5834 5834 5837 5841 5843 5845 5847 5849 5851 5852 5853 5855 5856 5857 5858 5859 5860 5860 5860 5860 5860 5860 5859 5859 5858 5856 5855 5853 5852 5850 5849 5847 5845 5843 5841 5839 5837 5835 5833 5831 5829 5827
5816 5821 5823 5825 5828 5831 5834 5836 5838 5840 5842 5843 5844 5846 5847 5848 5849 5850 5851 5851 5851 5851 5851 5851 5850 5850 5849 5848 5846 5844 5843 5841 5840 5838 5836 5835 5833 5831 5828 5826 5824 5822 5820 5818
5807 5810 5814 5817 5819 5821 5824 5826 5828 5831 5833 5834 5835 5836 5838 5838 5839 5840 5841 5842 5842 5842 5842 5842 5841 5840 5840 5839 5837 5836 5834 5832 5830 5829 5828 5826 5824 5822 5819 5817 5815 5813 5812 5810
5797 5801 5804 5807 5810 5812 5815 5817 5819 5821 5823 5824 5825 5826 5828 5828 5829 5830 5831 5831 5832 5832 5832 5832 5831 5831 5830 5829 5828 5826 5825 5823 5821 5820 5818 5816 5814 5812 5811 5809 5806 5805 5803 5801
5788 5792 5795 5798 5801 5803 5805 5807 5809 5811 5813 5814 5815 5816 5817 5818 5819 5819 5820 5820 5821 5821 5821 5821 5821 5820 5819 5818 5817 5816 5815 5813 5811 5809 5807 5806 5804 5803 5801 5799 5797 5795 5793 5791
5780 5783 5786 5789 5791 5793 5795 5798 5799 5801 5802 5804 5805 5806 5806 5807 5808 5808 5808 5809 5810 5810 5809 5809 5809 5809 5808 5807 5806 5805 5804 5802 5801 5799 5797 5796 5794 5792 5791 5789 5786 5785 5783 5780
5770 5773 5776 5779 5781 5783 5785 5787 5789 5790 5792 5793 5794 5794 5795 5796 5796 5797 5797 5797 5798 5798 5798 5798 5797 5797 5796 5795 5794 5793 5792 5791 5789 5788 5786 5785 5783 5781 5779 5777 5775 5773 5771 5769
5761 5764 5767 5770 5772 5774 5775 5777 5779 5780 5781 5782 5783 5783 5784 5784 5785 5786 5786 5786 5786 5786 5786 5786 5785 5785 5784 5783 5782 5781 5780 5779 5777 5776 5774 5772 5771 5769 5767 5765 5763 5761 5759 5757
5752 5755 5758 5760 5762 5764 5765 5767 5768 5770 5770 5771 5772 5772 5773 5773 5773 5774 5774 5774 5774 5774 5774 5773 5773 5773 5771 5770 5769 5768 5768 5766 5765 5763 5762 5760 5758 5756 5754 5752 5751 5749 5747 5745
5744 5747 5749 5752 5753 5755 5756 5758 5759 5759 5760 5761 5761 5762 5762 5762 5762 5762 5763 5763 5762 5762 5762 5761 5761 5760 5759 5758 5757 5755 5754 5753 5751 5750 5748 5747 5745 5744 5742 5740 5738 5737 5735 5733
5736 5739 5741 5743 5745 5746 5748 5749 5749 5750 5751 5751 5751 5752 5752 5752 5751 5751 5751 5751 5750 5750 5750 5749 5748 5747 5746 5745 5744 5742 5741 5740 5738 5737 5736 5734 5732 5731 5729 5727 5725 5724 5723 5721
5728 5730 5732 5734 5736 5737 5739 5739 5740 5741 5741 5741 5742 5742 5741 5741 5740 5740 5740 5739 5739 5738 5737 5736 5735 5734 5733 5732 5730 5728 5727 5726 5725 5723 5722 5721 5719 5718 5716 5715 5713 5712 5710 5709
5720 5722 5724 5726 5727 5729 5729 5730 5731 5731 5731 5732 5732 5731 5731 5731 5730 5730 5729 5728 5727 5726 5725 5724 5722 5721 5720 5719 5717 5715 5714 5713 5711 5710 5708 5707 5706 5704 5703 5702 5700 5699 5697 5696
5713 5714 5716 5718 5719 5720 5721 5721 5722 5722 5722 5722 5722 5721 5721 5720 5720 5719 5718 5717 5716 5715 5713 5712 5710 5709 5707 5705 5704 5702 5701 5699 5698 5696 5695 5694 5692 5691 5689 5688 5687 5686 5685 5683
5706 5707 5709 5710 5711 5712 5712 5713 5713 5713 5713 5713 5712 5712 5711 5711 5710 5709 5707 5706 5705 5703 5701 5700 5698 5697 5695 5693 5691 5690 5688 5687 5685 5683 5682 5681 5679 5678 5677 5675 5674 5673 5672 5671
5699 5701 5702 5703 5703 5704 5704 5705 5705 5705 5705 5704 5704 5703 5702 5701 5700 5699 5697 5696 5694 5692 5690 5689 5687 5685 5683 5681 5679 5678 5676 5674 5673 5671 5670 5668 5667 5666 5664 5663 5662 5661 5660 5659
5693 5694 5695 5696 5696 5697 5697 5697 5697 5697 5696 5696 5695 5694 5693 5692 5690 5689 5687 5685 5683 5681 5679 5677 5675 5673 5671 5669 5668 5666 5664 5663 5661 5660 5658 5657 5655 5654 5653 5652 5651 5650 5649 5648
5687 5688 5688 5689 5690 5690 5690 5690 5689 5689 5688 5687 5686 5684 5683 5682 5681 5680 5678 5676 5673 5671 5669 5667 5665 5663 5661 5659 5657 5655 5653 5652 5650 5649 5647 5646 5644 5643 5642 5641 5640 5639 5638 5637
5681 5682 5683 5683 5684 5684 5683 5683 5682 5681 5680 5679 5678 5676 5675 5674 5672 5670 5668 5666 5664 5662 5659 5657 5655 5653 5651 5649 5647 5645 5643 5642 5640 5639 5637 5636 5634 5633 5633 5632 5631 5630 5629 5628
5676 5676 5677 5677 5677 5677 5677 5676 5675 5674 5673 5672 5670 5669 5668 5666 5664 5662 5660 5658 5655 5653 5651 5649 5647 5644 5642 5640 5638 5636 5634 5633 5631 5630 5628 5627 5626 5625 5624 5623 5622 5621 5620 5619